PDT,Max TemperatureF,Mean TemperatureF,Min TemperatureF,Max Dew PointF,MeanDew PointF,Min DewpointF,Max Humidity, Mean Humidity, Min Humidity, Max Sea Level PressureIn, Mean Sea Level PressureIn, Min Sea Level PressureIn, Max VisibilityMiles, Mean VisibilityMiles, Min VisibilityMiles, Max Wind SpeedMPH, Mean Wind SpeedMPH, Max Gust SpeedMPH,PrecipitationIn, CloudCover, Events, WindDirDegrees
2013-10-1,59,50,41,48,45,41,96,75,53,30.20,30.08,29.98,10,9,2,14,6,17,0.33,5,Rain,194
2013-10-2,53,47,41,47,44,40,100,86,71,30.20,30.14,30.08,10,6,0,13,2,16,0.32,6,Fog-Rain,279
2013-10-3,59,49,39,46,42,39,100,81,62,30.44,30.36,30.20,10,4,0,9,1,11,0.00,4,Fog,309
2013-10-4,63,50,36,49,41,36,100,78,56,30.47,30.43,30.35,10,4,0,8,2,10,0.00,3,Fog,306
2013-10-5,72,54,36,51,42,37,100,66,31,30.35,30.26,30.14,10,7,0,5,1,7,0.00,1,Fog,318
2013-10-6,73,56,38,50,42,37,100,69,38,30.14,30.07,29.96,10,5,0,14,5,19,0.01,2,Fog,204
2013-10-7,62,55,48,52,47,42,93,72,51,30.14,30.05,29.98,10,9,4,16,6,22,0.05,7,Rain,227
2013-10-8,57,49,40,50,46,41,100,83,66,30.15,30.07,29.99,10,8,2,20,5,24,0.07,7,Rain,292
2013-10-9,62,49,35,47,39,35,100,70,39,30.12,30.06,29.97,10,6,0,9,2,10,0.00,0,Fog,9
2013-10-10,59,51,43,51,46,43,93,75,57,30.10,30.02,29.96,10,10,4,9,1,13,0.01,8,Rain,250
2013-10-11,59,51,42,46,43,40,100,78,55,30.16,30.13,30.09,10,10,10,7,1,9,0.00,6,,321
2013-10-12,57,48,39,47,45,39,100,83,66,30.19,30.11,30.08,10,10,6,9,2,11,T,6,,12
2013-10-13,65,50,34,48,39,34,100,74,48,30.32,30.24,30.18,10,5,0,9,3,12,0.00,1,Fog,334
2013-10-14,68,51,34,44,40,33,100,69,37,30.38,30.33,30.30,10,9,5,12,2,14,0.00,0,,27
2013-10-15,68,51,34,42,38,34,100,66,32,30.35,30.25,30.14,10,9,2,12,3,19,0.00,0,,10
2013-10-16,67,52,37,49,42,36,100,70,40,30.17,30.14,30.11,10,9,2,7,1,10,0.00,0,,47
2013-10-17,67,51,35,51,41,35,100,76,52,30.25,30.19,30.15,10,4,0,7,1,7,0.00,2,Fog,328
2013-10-18,72,54,35,47,39,35,100,65,29,30.19,30.15,30.09,10,7,0,10,2,12,0.00,0,Fog,24
2013-10-19,69,52,34,49,41,34,100,71,42,30.17,30.13,30.10,10,7,1,6,0,7,0.00,0,,327
2013-10-20,67,51,35,50,42,37,100,74,48,30.17,30.12,30.06,10,3,0,8,1,10,0.00,2,Fog,349
2013-10-21,75,57,38,52,42,37,100,69,38,30.10,30.07,29.98,10,4,0,9,1,12,0.00,0,Fog,354
2013-10-22,78,59,39,53,45,38,100,66,31,30.06,30.01,29.95,10,9,2,7,1,11,0.00,0,,23
2013-10-23,73,56,38,52,44,37,100,72,44,30.02,29.98,29.94,10,6,0,7,1,20,0.00,1,Fog,323
2013-10-24,70,55,39,50,43,38,100,74,47,30.10,30.02,29.99,10,5,0,5,1,8,0.00,1,Fog,333
2013-10-25,55,48,40,50,45,40,100,92,83,30.28,30.19,30.10,10,4,0,7,2,8,0.00,6,Fog,301
2013-10-26,57,49,41,47,44,39,100,84,67,30.30,30.24,30.18,10,8,1,12,3,13,0.00,6,,287
2013-10-27,57,49,40,50,44,40,100,81,61,30.18,29.98,29.85,10,7,2,23,7,38,0.08,6,Rain,328
2013-10-28,59,46,33,42,36,31,100,67,33,29.94,29.87,29.84,10,10,7,13,3,18,0.00,1,,354
2013-10-29,58,44,29,35,32,28,96,66,36,30.07,30.01,29.94,10,10,10,8,1,9,0.00,0,,313
2013-10-30,55,42,28,44,36,26,92,73,54,30.19,30.16,30.07,10,9,6,8,1,10,T,4,,327
2013-10-31,60,51,42,49,46,44,100,82,64,30.28,30.22,30.16,10,8,0,10,2,13,T,7,Fog,84